Regional Weather Roundup
Issued by NWS

Home | Current Version | Previous Version | Text Only | Print | Product List | Glossary On
Versions: 1 2 3 4 5 6 7 8 9 10 11 12 13 14 15 16 17 18 19 20 21 22 23 24 25 26 27 28 29 30 31 32 33 34 35 36 37 38 39 40 41 42 43 44 45 46 47 48 49
000
ASCA42 TJSJ 041210
RWRPR
PUERTO RICO/U.S. VIRGIN ISLANDS HOURLY WEATHER ROUNDUP
NATIONAL WEATHER SERVICE SAN JUAN PR
800 AM AST TUE AUG 04 2015

PRZ001-004-041300-
PUERTO RICO

CITY           SKY/WX    TMP DP  RH WIND       PRES   REMARKS
SAN JUAN LMM   MOSUNNY   82  75  78 E8        30.08S
PONCE          MOSUNNY   86  72  62 NE6       29.99  HX  92
AGUADILLA      SUNNY     81  72  74 E9        30.08F
$$

PRZ006-007-041300-
U.S. VIRGIN ISLANDS

CITY           SKY/WX    TMP DP  RH WIND       PRES   REMARKS
CHARLOTTE AMA  MOSUNNY   86  73  66 E13       30.07R HX  93
CHRISTIANSTED  MOSUNNY   84  72  65 E15G24    30.07R
$$

HOURLY WEATHER ROUNDUP FOR THE NEWS MEDIA

CITY           SKY/WX    TMP DP  RH WIND       PRES   REMARKS
ORLANDO        SUNNY     77  71  82 S7        30.05R
NEW YORK       CLOUDY    74  66  76 SW8       29.88R
NEWARK         CLOUDY    71  67  87 SW8       29.87S
CHICAGO        MOSUNNY   63  57  81 W5        29.95R
HARTFORD       CLOUDY    67  64  90 SW8       29.84F
BOSTON         CLOUDY    68  66  93 S12       29.85R
DALLAS         MOCLDY    83  66  56 SW6       29.94R
PHILADELPHIA   CLOUDY    77  69  76 SW8       29.87S
LOS ANGELES    PTCLDY    67  62  84 CALM      29.88S
WASHINGTON DC  MOSUNNY   72  63  73 S5        29.93R


USA.gov is the U.S. government's official web portal to all federal, state and local government web resources and services.